Погода в Красивом

Россия / Еврейская автономная область     48°17′04″N   132°32′18″E
темп.,
°C
ветер,
м/с
пор.,
м/с
влажн.,
%
обл.,
%
осадки,
мм/ч
давл.,
гПа
погр.,
м
26 июля, пн
пн2601:00+23ююв1176100 0.1 100518
04:00+20с1192100 0.9 100511
07:00+21вюв349499 0.3 100479
10:00+25ююв2370100 0.3 1004512
13:00+30юз3652100 0.0 10031175
16:00+28сз3461100 0.0 1003359
19:00+26с2273100 0.0 1003113
22:00+22всв1184100 0.2 100412
27 июля, вт
вт2701:00+22юв1181100 0.1 100411
04:00+22с008072 0.1 100411
07:00+23св118281 0.0 100423
10:00+28ссз116174 0.0 1005494
13:00+33сз124751 0.0 10041474
16:00+34сз243942 0.0 10022085
19:00+32сз225356 0.0 1001310
22:00+26в2267100 0.0 100216
28 июля, ср
ср2801:00+25вюв227497 0.0 100224
04:00+23в228213 0.0 100233
07:00+23в238689 0.0 1003107
10:00+29в22615 0.0 1002547
13:00+35ююв144212 0.0 10001945
16:00+33с225370 0.0 998381
19:00+28всв12804 2.3 99881
22:00+26юв227749 2.3 99815
29 июля, чт
чт2901:00+24зсз118699 0.7 99913
04:00+22зсз239298 0.7 99850
07:00+22з258846 0.0 999138
10:00+26зсз3462100 0.0 999669
13:00+30з4550100 0.0 9981388
16:00+30зсз4548100 0.0 9971770
19:00+29зсз475497 0.0 996742
22:00+24зсз2269100 0.0 99728
30 июля, пт
пт3001:00+22з23804 0.0 99758
04:00+21з22861 0.0 99736
07:00+22зсз22820 0.0 99778
10:00+28зсз23561 0.0 997791
13:00+31зсз34420 0.0 9961884
16:00+32зсз34393 0.0 9952086
19:00+31зюз354897 0.0 995331
22:00+25зсз12630 0.0 99613